Weather History for San Antonio Stinson, TX

Change the Weather History Date:

Monday, November 19, 2012

  Actual Average Record
Temperature  
Mean Temperature 63 °F -  
Max Temperature 71 °F 68 °F 86 °F (2011)
Min Temperature 55 °F 49 °F 36 °F (2010)
Degree Days  
Heating Degree Days 2    
Growing Degree Days 13 (Base 50)    
Moisture  
Dew Point 55 °F    
Average Humidity 78    
Maximum Humidity 96    
Minimum Humidity 59    
Precipitation  
Precipitation 0.00 in - - ()
Sea Level Pressure  
Sea Level Pressure 30.19 in    
Wind  
Wind Speed 3 mph (ESE)    
Max Wind Speed 8 mph    
Max Gust Speed -    
Visibility 10 miles    
Events      
Averages and records for this station are not official NWS values.
T = Trace of Precipitation, MM = Missing Value Source: NWS Daily Summary

Daily Weather History Graph

Daily Weather History Graph

Search for Another Location

Airport:

Trip Planner

Search our weather history database for the weather conditions in past years. The results will help you decide how hot, cold, wet, or windy it might be!

Date:

Astronomy

Nov. 19, 2012 Rise Set
Actual Time 7:01 AM CST 5:37 PM CST
Civil Twilight 6:36 AM CST 6:02 PM CST
Nautical Twilight 6:07 AM CST 6:31 PM CST
Astronomical Twilight 5:38 AM CST 6:59 PM CST
Moon 12:15 PM CST (11/19) 11:53 PM CST (11/19)
Length of Visible Light 11h 26m
Length of Day
10h 35m
Waxing Crescent, 41% of the Moon is Illuminated
Nov 19
Waxing Crescent
Nov 20
First Quarter
Nov 28
Full
Dec 6
Last Quarter
Dec 13
New

Hourly Weather History & Observations

Time (CST) Temp. Dew Point Humidity Pressure Visibility Wind Dir Wind Speed Gust Speed Precip Events Conditions
12:53 AM 57.0 °F 53.1 °F 87% 30.21 in 10.0 mi Calm Calm - N/A   Mostly Cloudy
1:53 AM 55.9 °F 52.0 °F 87% 30.19 in 10.0 mi East 3.5 mph - N/A   Partly Cloudy
2:53 AM 57.0 °F 54.0 °F 89% 30.17 in 10.0 mi East 6.9 mph - N/A   Overcast
3:53 AM 57.9 °F 53.1 °F 84% 30.19 in 10.0 mi Calm Calm - N/A   Overcast
4:53 AM 57.9 °F 53.1 °F 84% 30.18 in 10.0 mi ESE 4.6 mph - N/A   Overcast
5:53 AM 57.9 °F 53.1 °F 84% 30.19 in 10.0 mi ENE 3.5 mph - N/A   Overcast
6:53 AM 57.9 °F 53.1 °F 84% 30.21 in 10.0 mi Calm Calm - N/A   Overcast
7:53 AM 57.9 °F 53.1 °F 84% 30.22 in 9.0 mi East 3.5 mph - N/A   Overcast
8:53 AM 60.1 °F 54.0 °F 80% 30.24 in 9.0 mi East 3.5 mph - N/A   Overcast
9:53 AM 62.1 °F 54.0 °F 75% 30.25 in 10.0 mi ESE 4.6 mph - N/A   Overcast
10:53 AM 64.9 °F 55.0 °F 70% 30.25 in 10.0 mi SE 3.5 mph - N/A   Overcast
11:53 AM 66.9 °F 55.0 °F 66% 30.23 in 10.0 mi ESE 5.8 mph - N/A   Overcast
12:53 PM 69.1 °F 55.0 °F 61% 30.19 in 10.0 mi South 8.1 mph - N/A   Overcast
1:53 PM 70.0 °F 55.0 °F 59% 30.17 in 10.0 mi SSE 4.6 mph - N/A   Overcast
2:53 PM 70.0 °F 55.0 °F 59% 30.15 in 10.0 mi South 8.1 mph - N/A   Overcast
3:53 PM 71.1 °F 55.9 °F 59% 30.14 in 10.0 mi South 3.5 mph - N/A   Overcast
4:53 PM 70.0 °F 55.9 °F 61% 30.14 in 10.0 mi SSE 3.5 mph - N/A   Overcast
5:53 PM 68.0 °F 57.0 °F 68% 30.16 in 10.0 mi Calm Calm - N/A   Overcast
6:53 PM 64.0 °F 57.9 °F 80% 30.17 in 10.0 mi Calm Calm - N/A   Scattered Clouds
7:53 PM 62.1 °F 57.0 °F 84% 30.18 in 10.0 mi Calm Calm - N/A   Clear
8:53 PM 60.1 °F 57.0 °F 90% 30.18 in 10.0 mi Calm Calm - N/A   Clear
9:53 PM 59.0 °F 55.9 °F 90% 30.18 in 10.0 mi Calm Calm - N/A   Clear
10:53 PM 55.0 °F 54.0 °F 96% 30.19 in 8.0 mi Calm Calm - N/A   Clear
11:53 PM 55.9 °F 54.0 °F 93% 30.17 in 9.0 mi Calm Calm - N/A   Scattered Clouds